Location: Street
(51.1247°N, 2.7429°W)
Time: 07:21:58
(UTC+00:00)

SR - Pass Details

Date: 27 November 2020
Orbit: 576 x 880 km, 66.7° (Epoch: 16 January)

Event Time Altitude Azimuth Distance (km) Brightness Sun altitude
Rises 21:13:15 0° 265° (W) 2,873 - -46.2°
Reaches altitude 10° 21:15:53 10° 281° (W) 2,012 - -46.6°
Maximum altitude 21:19:25 22° 332° (NNW) 1,445 - -47.0°
Drops below altitude 10° 21:23:12 10° 23° (NNE) 2,156 - -47.6°
Sets 21:26:08 0° 39° (NE) 3,139 - -48.0°
